Вернуться в каталог

FREGAT DEB

АктивенUNKNOWN
NORAD 46095·DEBRIS·🇷🇺 Russia

Запущен Jul 18, 2011 с Baikonur Cosmodrome

Loading…

Ближайшие Пролёты (ближайшие 24 часа)

TLE

УстаревшееSource: Space-Track

Эпоха: May 31, 2026, 23:23 UTC

1 46095U 11037JE  26151.97463323  .00001922  00000-0  45442-1 0  9992
2 46095  50.9219   1.7850 1470379 267.3275  75.8907 10.03468759209512

Отслеживайте FREGAT DEB в реальном времени с AllMySat

Download on the App Store